Location: Grasslands National Park East Block
(49.0708°N, 106.5295°W)
Time: 20:57:15
(UTC-06:00)

Vanguard 1 Rocket - Pass Details

Date: 01 October 2019
Orbit: 650 x 4226 km, 34.3° (Epoch: 13 October)

Event Time Altitude Azimuth Distance (km) Brightness Sun altitude
Rises 22:19:00 0° 279° (W) 7,865 12.9 -33.5°
Reaches altitude 10° 22:26:49 10° 267° (W) 6,247 12.1 -34.5°
Maximum altitude 22:38:07 20° 229° (SW) 4,269 10.7 -35.8°
Enters shadow 22:42:13 18° 206° (SSW) 3,994 10.4 -36.3°
Drops below altitude 10° 22:45:56 10° 186° (S) 4,122 - -36.7°
Sets 22:49:40 0° 170° (S) 4,617 - -37.1°
